| time (UTC) | temp F | wind direction | speed MPH | gust MPH | rain 1hr in | rain 24hr in | rain mn in | humidity % | barometer mb |
| 20260903074114 | 75 | 74 | 4.0 | 6.0 | 0.00 | 0.00 | 0.00 | 16 | 1015.3 |
| 20260903073212 | 75 | 238 | 3.0 | 4.0 | 0.00 | 0.00 | 0.00 | 17 | 1015.3 |
| 20260903072213 | 75 | 90 | 2.0 | 2.0 | 0.00 | 0.00 | 0.00 | 14 | 1015.2 |
| 20260903071230 | 76 | 80 | 2.0 | 3.0 | 0.00 | 0.00 | 0.00 | 16 | 1015.2 |
| 20260903070314 | 76 | 90 | 2.0 | 3.0 | 0.00 | 0.00 | 0.00 | 14 | 1015.2 |
| 20260903065329 | 76 | 68 | 4.0 | 5.0 | 0.00 | 0.00 | 0.00 | 15 | 1015.0 |
| 20260903064413 | 75 | 61 | 2.0 | 5.0 | 0.00 | 0.00 | 0.00 | 16 | 1015.1 |
| 20260903063412 | 76 | 121 | 0.0 | 2.0 | 0.00 | 0.00 | 0.00 | 15 | 1014.9 |
| 20260903062414 | 76 | 67 | 2.0 | 4.0 | 0.00 | 0.00 | 0.00 | 16 | 1015.0 |
| 20260903060427 | 77 | 47 | 3.0 | 4.0 | 0.00 | 0.00 | 0.00 | 15 | 1014.7 |
| 20260903055413 | 77 | 67 | 2.0 | 3.0 | 0.00 | 0.00 | 0.00 | 15 | 1014.9 |
| 20260903055314 | 77 | 67 | 2.0 | 3.0 | 0.00 | 0.00 | 0.00 | 15 | 1014.9 |
| 20260903054333 | 76 | 90 | 2.0 | 3.0 | 0.00 | 0.00 | 0.00 | 15 | 1014.8 |
| 20260903053430 | 74 | 142 | 1.0 | 5.0 | 0.00 | 0.00 | 0.00 | 18 | 1014.8 |
| 20260903052530 | 74 | 270 | 0.0 | 0.0 | 0.00 | 0.00 | 0.00 | 18 | 1014.7 |
| 20260903051515 | 75 | 273 | 1.0 | 3.0 | 0.00 | 0.00 | 0.00 | 18 | 1014.7 |
| 20260903050515 | 76 | 63 | 2.0 | 3.0 | 0.00 | 0.00 | 0.00 | 17 | 1014.7 |
| 20260903045613 | 76 | 27 | 0.0 | 3.0 | 0.00 | 0.00 | 0.00 | 17 | 1014.6 |
| 20260903044615 | 77 | 247 | 0.0 | 0.0 | 0.00 | 0.00 | 0.00 | 16 | 1014.6 |
| 20260903043629 | 79 | 234 | 0.0 | 0.0 | 0.00 | 0.00 | 0.00 | 13 | 1014.5 |
| 20260903042716 | 79 | 292 | 3.0 | 4.0 | 0.00 | 0.00 | 0.00 | 14 | 1014.6 |
| 20260903041715 | 80 | 107 | 0.0 | 0.0 | 0.00 | 0.00 | 0.00 | 12 | 1014.4 |
| 20260903041631 | 80 | 112 | 0.0 | 0.0 | 0.00 | 0.00 | 0.00 | 13 | 1014.3 |
| 20260903035716 | 79 | 292 | 0.0 | 0.0 | 0.00 | 0.00 | 0.00 | 15 | 1014.1 |
| 20260903034730 | 80 | 292 | 0.0 | 1.0 | 0.00 | 0.00 | 0.00 | 13 | 1013.9 |
| 20260903032913 | 82 | 292 | 3.0 | 4.0 | 0.00 | 0.00 | 0.00 | 11 | 1013.9 |
| 20260903031914 | 83 | 202 | 0.0 | 2.0 | 0.00 | 0.00 | 0.00 | 10 | 1013.8 |
| 20260903025929 | 84 | 246 | 3.0 | 4.0 | 0.00 | 0.00 | 0.00 | 8 | 1013.7 |
| 20260903023913 | 85 | 240 | 4.0 | 5.0 | 0.00 | 0.00 | 0.00 | 9 | 1013.6 |
| 20260903022916 | 86 | 224 | 5.0 | 7.0 | 0.00 | 0.00 | 0.00 | 8 | 1013.5 |
| 20260903021929 | 87 | 232 | 6.0 | 8.0 | 0.00 | 0.00 | 0.00 | 8 | 1013.4 |
| 20260903021013 | 87 | 239 | 6.0 | 11.0 | 0.00 | 0.00 | 0.00 | 8 | 1013.3 |
| 20260903015016 | 88 | 245 | 4.0 | 7.0 | 0.00 | 0.00 | 0.00 | 7 | 1013.1 |
| 20260903013114 | 90 | 240 | 5.0 | 13.0 | 0.00 | 0.00 | 0.00 | 7 | 1013.3 |
| 20260903012017 | 90 | 224 | 11.0 | 16.0 | 0.00 | 0.00 | 0.00 | 7 | 1013.3 |
| 20260903011114 | 90 | 241 | 11.0 | 18.0 | 0.00 | 0.00 | 0.00 | 7 | 1013.2 |
| 20260903010213 | 91 | 224 | 10.0 | 17.0 | 0.00 | 0.00 | 0.00 | 6 | 1013.2 |
| 20260903005215 | 91 | 239 | 6.0 | 8.0 | 0.00 | 0.00 | 0.00 | 7 | 1013.1 |
| 20260903004216 | 91 | 214 | 9.0 | 14.0 | 0.00 | 0.00 | 0.00 | 7 | 1013.2 |
| 20260903002228 | 92 | 241 | 6.0 | 10.0 | 0.00 | 0.00 | 0.00 | 8 | 1013.1 |
| 20260903001316 | 92 | 240 | 11.0 | 18.0 | 0.00 | 0.00 | 0.00 | 6 | 1013.1 |
| 20260903000317 | 92 | 227 | 15.0 | 23.0 | 0.00 | 0.00 | 0.00 | 7 | 1013.3 |
| 20260902235413 | 92 | 215 | 6.0 | 14.0 | 0.00 | 0.00 | 0.00 | 7 | 1013.3 |
| 20260902234431 | 91 | 237 | 9.0 | 14.0 | 0.00 | 0.00 | 0.00 | 8 | 1013.3 |
| 20260902233414 | 92 | 261 | 8.0 | 17.0 | 0.00 | 0.00 | 0.00 | 7 | 1013.4 |
| 20260902231513 | 92 | 238 | 10.0 | 13.0 | 0.00 | 0.00 | 0.00 | 7 | 1013.5 |
| 20260902230530 | 92 | 251 | 7.0 | 13.0 | 0.00 | 0.00 | 0.00 | 6 | 1013.8 |
| 20260902225617 | 92 | 233 | 11.0 | 20.0 | 0.00 | 0.00 | 0.00 | 7 | 1013.7 |
| 20260902224629 | 93 | 226 | 8.0 | 11.0 | 0.00 | 0.00 | 0.00 | 6 | 1013.7 |
| 20260902222731 | 92 | 217 | 12.0 | 20.0 | 0.00 | 0.00 | 0.00 | 7 | 1014.0 |
| 20260902221729 | 92 | 233 | 6.0 | 9.0 | 0.00 | 0.00 | 0.00 | 6 | 1014.1 |
| 20260902220729 | 93 | 215 | 12.0 | 18.0 | 0.00 | 0.00 | 0.00 | 7 | 1014.4 |
| 20260902215815 | 92 | 237 | 9.0 | 13.0 | 0.00 | 0.00 | 0.00 | 9 | 1014.4 |
| 20260902214833 | 91 | 216 | 7.0 | 11.0 | 0.00 | 0.00 | 0.00 | 9 | 1014.4 |
| 20260902213829 | 91 | 226 | 11.0 | 18.0 | 0.00 | 0.00 | 0.00 | 9 | 1014.7 |
| 20260902212814 | 91 | 235 | 12.0 | 20.0 | 0.00 | 0.00 | 0.00 | 11 | 1014.9 |
| 20260902210913 | 92 | 175 | 9.0 | 14.0 | 0.00 | 0.00 | 0.00 | 11 | 1014.9 |
| 20260902203914 | 92 | 218 | 12.0 | 18.0 | 0.00 | 0.00 | 0.00 | 11 | 1015.6 |
| 20260902203816 | 92 | 220 | 9.0 | 14.0 | 0.00 | 0.00 | 0.00 | 10 | 1015.4 |
| 20260902202912 | 90 | 217 | 8.0 | 17.0 | 0.00 | 0.00 | 0.00 | 12 | 1015.4 |
| 20260902201915 | 91 | 243 | 9.0 | 16.0 | 0.00 | 0.00 | 0.00 | 11 | 1015.5 |
| 20260902200928 | 90 | 250 | 6.0 | 12.0 | 0.00 | 0.00 | 0.00 | 11 | 1015.7 |
| 20260902195913 | 90 | 232 | 8.0 | 11.0 | 0.00 | 0.00 | 0.00 | 13 | 1015.9 |
| 20260902195814 | 90 | 198 | 7.0 | 13.0 | 0.00 | 0.00 | 0.00 | 13 | 1015.9 |
| 20260902193828 | 90 | 229 | 10.0 | 15.0 | 0.00 | 0.00 | 0.00 | 14 | 1016.4 |
| 20260902192830 | 90 | 214 | 9.0 | 14.0 | 0.00 | 0.00 | 0.00 | 14 | 1016.6 |
| 20260902191915 | 89 | 223 | 7.0 | 11.0 | 0.00 | 0.00 | 0.00 | 14 | 1016.4 |
| 20260902191012 | 89 | 187 | 8.0 | 14.0 | 0.00 | 0.00 | 0.00 | 15 | 1016.6 |
| 20260902190029 | 89 | 219 | 9.0 | 15.0 | 0.00 | 0.00 | 0.00 | 14 | 1016.8 |
| 20260902185012 | 88 | 302 | 3.0 | 4.0 | 0.00 | 0.00 | 0.00 | 16 | 1016.7 |
| 20260902184013 | 88 | 242 | 6.0 | 9.0 | 0.00 | 0.00 | 0.00 | 17 | 1017.0 |
| 20260902183012 | 87 | 227 | 6.0 | 8.0 | 0.00 | 0.00 | 0.00 | 17 | 1017.1 |
| 20260902182011 | 88 | 252 | 5.0 | 8.0 | 0.00 | 0.00 | 0.00 | 18 | 1017.3 |
| 20260902181016 | 87 | 242 | 4.0 | 8.0 | 0.00 | 0.00 | 0.00 | 19 | 1017.3 |
| 20260902180930 | 87 | 229 | 7.0 | 11.0 | 0.00 | 0.00 | 0.00 | 19 | 1017.4 |
| 20260902174113 | 87 | 219 | 5.0 | 9.0 | 0.00 | 0.00 | 0.00 | 21 | 1017.6 |
| 20260902174014 | 87 | 222 | 4.0 | 9.0 | 0.00 | 0.00 | 0.00 | 21 | 1017.6 |
| 20260902173030 | 88 | 235 | 4.0 | 7.0 | 0.00 | 0.00 | 0.00 | 22 | 1017.5 |
| 20260902172112 | 88 | 253 | 2.0 | 5.0 | 0.00 | 0.00 | 0.00 | 23 | 1017.7 |
| 20260902171115 | 88 | 337 | 0.0 | 1.0 | 0.00 | 0.00 | 0.00 | 23 | 1017.6 |
| 20260902170129 | 88 | 22 | 0.0 | 1.0 | 0.00 | 0.00 | 0.00 | 24 | 1017.5 |
| 20260902165115 | 88 | 45 | 1.0 | 2.0 | 0.00 | 0.00 | 0.00 | 27 | 1017.4 |
| 20260902164112 | 85 | 80 | 0.0 | 0.0 | 0.00 | 0.00 | 0.00 | 29 | 1017.7 |
| 20260902163129 | 86 | 184 | 3.0 | 4.0 | 0.00 | 0.00 | 0.00 | 30 | 1017.5 |
| 20260902163013 | 86 | 180 | 0.0 | 2.0 | 0.00 | 0.00 | 0.00 | 31 | 1017.5 |
| 20260902162014 | 85 | 202 | 0.0 | 1.0 | 0.00 | 0.00 | 0.00 | 31 | 1017.5 |
| 20260902161013 | 83 | 112 | 0.0 | 0.0 | 0.00 | 0.00 | 0.00 | 33 | 1017.7 |
| 20260902160013 | 82 | 67 | 0.0 | 2.0 | 0.00 | 0.00 | 0.00 | 35 | 1017.6 |
| 20260902155028 | 80 | 270 | 2.0 | 2.0 | 0.00 | 0.00 | 0.00 | 36 | 1017.6 |
| 20260902154113 | 80 | 276 | 0.0 | 1.0 | 0.00 | 0.00 | 0.00 | 38 | 1017.5 |
| 20260902153211 | 81 | 292 | 0.0 | 2.0 | 0.00 | 0.00 | 0.00 | 37 | 1017.7 |
| 20260902152214 | 79 | 247 | 0.0 | 0.0 | 0.00 | 0.00 | 0.00 | 38 | 1017.6 |
| 20260902151213 | 78 | 202 | 0.0 | 0.0 | 0.00 | 0.00 | 0.00 | 41 | 1017.6 |
| 20260902145313 | 75 | 292 | 0.0 | 0.0 | 0.00 | 0.00 | 0.00 | 39 | 1017.6 |
| 20260902144312 | 73 | 247 | 0.0 | 1.0 | 0.00 | 0.00 | 0.00 | 41 | 1017.5 |
| 20260902143327 | 72 | 292 | 0.0 | 0.0 | 0.00 | 0.00 | 0.00 | 47 | 1017.4 |
| 20260902142331 | 72 | 202 | 0.0 | 0.0 | 0.00 | 0.00 | 0.00 | 47 | 1017.3 |
| 20260902141413 | 71 | 156 | 1.0 | 3.0 | 0.00 | 0.00 | 0.00 | 47 | 1017.2 |
| 20260902140428 | 69 | 22 | 0.0 | 0.0 | 0.00 | 0.00 | 0.00 | 50 | 1017.3 |
| 20260902135413 | 68 | 247 | 0.0 | 0.0 | 0.00 | 0.00 | 0.00 | 51 | 1017.2 |
| 20260902134512 | 68 | 225 | 0.0 | 0.0 | 0.00 | 0.00 | 0.00 | 48 | 1017.1 |
| 20260902132612 | 67 | 202 | 0.0 | 0.0 | 0.00 | 0.00 | 0.00 | 50 | 1017.2 |
| 20260902131613 | 66 | 292 | 0.0 | 1.0 | 0.00 | 0.00 | 0.00 | 58 | 1017.0 |
| 20260902130614 | 66 | 337 | 0.0 | 0.0 | 0.00 | 0.00 | 0.00 | 61 | 1016.8 |
| 20260902125628 | 66 | 337 | 0.0 | 0.0 | 0.00 | 0.00 | 0.00 | 60 | 1016.8 |
| 20260902124629 | 67 | 337 | 0.0 | 0.0 | 0.00 | 0.00 | 0.00 | 59 | 1016.6 |
| 20260902123714 | 67 | 337 | 0.0 | 0.0 | 0.00 | 0.00 | 0.00 | 59 | 1016.5 |
| 20260902122812 | 67 | 337 | 0.0 | 0.0 | 0.00 | 0.00 | 0.00 | 60 | 1016.4 |
| 20260902122711 | 67 | 337 | 0.0 | 0.0 | 0.00 | 0.00 | 0.00 | 60 | 1016.5 |
| 20260902121729 | 67 | 337 | 0.0 | 0.0 | 0.00 | 0.00 | 0.00 | 57 | 1016.5 |
| 20260902120811 | 67 | 67 | 0.0 | 0.0 | 0.00 | 0.00 | 0.00 | 58 | 1016.4 |
| 20260902115813 | 69 | 67 | 0.0 | 0.0 | 0.00 | 0.00 | 0.00 | 55 | 1016.5 |
| 20260902114829 | 69 | 90 | 1.0 | 1.0 | 0.00 | 0.00 | 0.00 | 54 | 1016.3 |
| 20260902112812 | 70 | 337 | 0.0 | 0.0 | 0.00 | 0.00 | 0.00 | 53 | 1016.3 |
| 20260902111813 | 69 | 337 | 2.0 | 3.0 | 0.00 | 0.00 | 0.00 | 53 | 1016.2 |
| 20260902111728 | 69 | 343 | 2.0 | 3.0 | 0.00 | 0.00 | 0.00 | 52 | 1016.1 |
| 20260902110813 | 70 | 45 | 0.0 | 1.0 | 0.00 | 0.00 | 0.00 | 51 | 1016.1 |
| 20260902105827 | 70 | 45 | 0.0 | 0.0 | 0.00 | 0.00 | 0.00 | 50 | 1016.0 |
| 20260902103928 | 71 | 45 | 0.0 | 1.0 | 0.00 | 0.00 | 0.00 | 48 | 1016.1 |
| 20260902103827 | 71 | 45 | 2.0 | 3.0 | 0.00 | 0.00 | 0.00 | 48 | 1016.1 |
| 20260902102829 | 72 | 67 | 0.0 | 0.0 | 0.00 | 0.00 | 0.00 | 48 | 1016.0 |
| 20260902101913 | 72 | 67 | 0.0 | 0.0 | 0.00 | 0.00 | 0.00 | 47 | 1016.0 |
| 20260902100912 | 73 | 67 | 0.0 | 0.0 | 0.00 | 0.00 | 0.00 | 44 | 1015.9 |
| 20260902095914 | 73 | 67 | 0.0 | 1.0 | 0.00 | 0.00 | 0.00 | 46 | 1016.0 |
| 20260902094011 | 74 | 67 | 0.0 | 0.0 | 0.00 | 0.00 | 0.00 | 43 | 1015.9 |
| 20260902093027 | 73 | 67 | 0.0 | 1.0 | 0.00 | 0.00 | 0.00 | 46 | 1015.9 |
| 20260902092111 | 73 | 67 | 0.0 | 0.0 | 0.00 | 0.00 | 0.00 | 45 | 1015.9 |
| 20260902091113 | 72 | 47 | 2.0 | 4.0 | 0.00 | 0.00 | 0.00 | 48 | 1016.0 |
| 20260902085114 | 74 | 90 | 0.0 | 0.0 | 0.00 | 0.00 | 0.00 | 45 | 1015.9 |
| 20260902084127 | 73 | 90 | 2.0 | 3.0 | 0.00 | 0.00 | 0.00 | 46 | 1015.7 |
| 20260902082227 | 73 | 330 | 0.0 | 1.0 | 0.00 | 0.00 | 0.00 | 47 | 1016.0 |
| 20260902081227 | 74 | 337 | 0.0 | 0.0 | 0.00 | 0.00 | 0.00 | 46 | 1015.9 |
| 20260902075329 | 74 | 326 | 1.0 | 2.0 | 0.00 | 0.00 | 0.00 | 45 | 1015.6 |